Dewpoint
-6 -5 -4 -2 -1 -2 -3 -2 -6 -8 -12 -13 -7 -8 -8 -7 -7 -7 -9 -10 -10 -10 -10 -9 -8 -8 -8 -7 -7 -6 -6 -6 -6 -6 -2 4 6 6 5 5 5 4 4
-5 -4 -4 -3 -3 -3 -2 -3 -6 -9 -12 -7 -8 -7 -8 -8 -8 -10 -11 -11 -11 -10 -10 -9 -9 -8 -8 -7 -7 -6 -6 -5 -4 -5 -3 -2 3 6 5 4 4 4 4
-4 -4 -3 -3 -2 -2 -1 -4 -6 -10 -8 -8 -7 -8 -9 -9 -10 -11 -11 -11 -11 -11 -10 -9 -9 -8 -8 -8 -7 -6 -6 -5 -4 -3 -1 -1 0 -3 -3 4 3 -0 -5
-4 -3 -3 -2 -1 -1 -2 -4 -7 -10 -7 -7 -7 -9 -9 -10 -10 -11 -11 -11 -11 -11 -10 -10 -9 -9 -8 -8 -7 -7 -6 -5 -4 -3 -1 -2 -1 -1 -3 -5 -5 -5 -5
-3 -3 -2 -1 -1 -1 -2 -4 -8 -6 -7 -7 -8 -9 -9 -10 -10 -11 -10 -10 -11 -11 -11 -10 -11 -11 -11 -11 -9 -8 -7 -6 -4 -3 -2 -1 -1 -0 2 -2 -4 -6 -5
-2 -1 -0 0 -1 -1 -2 -5 -8 -6 -7 -6 -8 -8 -9 -9 -10 -9 -9 -10 -10 -10 -10 -10 -10 -11 -12 -14 -14 -13 -12 -9 -7 -5 -3 -1 -0 -0 0 1 -2 -4 -6
-1 -0 0 -0 -0 -1 -3 -7 -6 -6 -6 -6 -7 -8 -8 -9 -9 -9 -9 -9 -10 -10 -10 -10 -10 -11 -12 -14 -15 -15 -15 -14 -12 -10 -7 -5 -3 -2 -1 -0 -1 -2 -5
-1 -0 -0 -0 -1 -1 -4 -7 -7 -6 -6 -5 -7 -8 -8 -9 -8 -8 -8 -9 -9 -10 -11 -12 -14 -15 -17 -18 -18 -17 -16 -15 -15 -14 -14 -12 -8 -5 -3 -2 -1 -2 -3
-0 -0 -1 -1 -2 -3 -5 -7 -6 -5 -5 -5 -6 -7 -7 -8 -8 -8 -8 -9 -9 -10 -12 -13 -14 -16 -17 -18 -19 -18 -17 -17 -16 -16 -15 -15 -14 -12 -8 -5 -3 -2 -1
-0 -1 -1 -2 -4 -5 -6 -6 -5 -5 -5 -4 -5 -7 -7 -7 -7 -7 -8 -8 -9 -10 -10 -10 -12 -14 -16 -17 -17 -17 -16 -16 -16 -16 -17 -18 -17 -15 -14 -11 -7 -4 -2
-1 -1 -1 -1 -2 -3 -4 -4 -3 -3 -4 -4 -4 -5 -6 -6 -7 -7 -8 -8 -8 -8 -7 -6 -7 -9 -12 -14 -16 -15 -14 -14 -14 -15 -17 -19 -21 -20 -20 -18 -13 -8 -5
-4 -4 -3 -2 -1 -2 -3 -2 -1 -2 -2 -3 -3 -4 -5 -6 -6 -7 -7 -6 -6 -7 -7 -6 -6 -7 -9 -11 -13 -13 -13 -13 -13 -14 -16 -19 -22 -25 -22 -21 -20 -18 -13
-4 -4 -4 -4 -4 -3 -2 -2 -1 -2 -2 -3 -3 -3 -4 -5 -6 -6 -6 -5 -5 -5 -7 -7 -6 -6 -8 -9 -10 -11 -11 -12 -13 -14 -16 -20 -25 -26 -25 -22 -21 -21 -19
-3 -3 -3 -3 -3 -4 -4 -3 -1 -1 -1 -2 -2 -3 -3 -4 -5 -6 -5 -5 -5 -4 -6 -6 -4 -5 -6 -7 -8 -9 -10 -12 -14 -16 -20 -22 -24 -24 -24 -24 -22 -21 -21
-3 -3 -3 -2 -2 -2 -3 -3 -2 -1 -2 -2 -2 -3 -3 -4 -4 -4 -4 -3 -4 -4 -4 -3 -1 -3 -6 -6 -8 -9 -12 -14 -15 -17 -18 -18 -19 -19 -20 -21 -21 -21 -21
-6 -7 -8 -9 -10 -7 -4 -2 -2 -2 -2 -3 -3 -3 -3 -3 -3 -2 -2 -2 -3 -3 -3 -1 -3 -5 -5 -7 -9 -10 -11 -12 -12 -13 -12 -13 -14 -15 -16 -18 -19 -21 -21
-4 -6 -7 -9 -12 -14 -15 -15 -12 -8 -5 -3 -3 -3 -3 -3 -4 -3 -3 -3 -4 -4 -5 -5 -5 -6 -9 -10 -10 -11 -13 -15 -16 -17 -17 -16 -16 -18 -19 -19 -19 -20 -21
-4 -5 -9 -11 -13 -15 -19 -21 -23 -24 -23 -23 -23 -22 -20 -17 -14 -13 -12 -10 -8 -8 -9 -11 -12 -13 -13 -14 -14 -14 -14 -14 -15 -16 -18 -19 -20 -20 -19 -18 -18 -19 -20
-5 -7 -9 -10 -17 -25 -26 -24 -23 -22 -21 -20 -20 -20 -22 -23 -21 -18 -14 -15 -15 -13 -11 -11 -10 -11 -13 -13 -13 -14 -15 -15 -16 -17 -17 -19 -19 -20 -18 -16 -17 -18 -21
-5 -7 -11 -22 -24 -22 -22 -21 -20 -19 -15 -13 -15 -17 -18 -19 -22 -23 -20 -15 -14 -12 -10 -10 -10 -10 -10 -19 -15 -12 -11 -13 -15 -18 -19 -19 -17 -16 -15 -14 -14 -14 -19
-8 -13 -23 -23 -22 -22 -21 -21 -20 -19 -12 -13 -14 -17 -18 -17 -18 -19 -20 -22 -20 -19 -17 -17 -14 -9 -10 -16 -15 -12 -10 -12 -15 -16 -18 -18 -16 -13 -13 -13 -12 -14 -16
-11 -17 -20 -22 -22 -21 -20 -19 -18 -16 -13 -15 -15 -17 -18 -19 -19 -19 -20 -20 -18 -17 -17 -17 -18 -20 -21 -20 -15 -11 -11 -13 -10 -11 -13 -15 -16 -15 -16 -16 -17 -16 -8
-18 -18 -16 -16 -16 -15 -15 -16 -16 -16 -14 -13 -13 -17 -17 -19 -19 -17 -16 -16 -17 -16 -16 -15 -14 -15 -16 -18 -17 -10 -11 -13 -12 -11 -12 -12 -13 -14 -15 -17 -16 -13 -12
-20 -19 -19 -18 -18 -17 -16 -15 -15 -15 -12 -11 -16 -18 -19 -19 -18 -17 -16 -15 -15 -13 -12 -11 -10 -10 -11 -13 -13 -12 -12 -12 -12 -11 -9 -8 -8 -8 -9 -9 -10 -9 -8
-18 -17 -15 -14 -14 -15 -14 -13 -14 -12 -12 -18 -18 -18 -18 -17 -17 -17 -16 -13 -13 -11 -9 -8 -7 -7 -8 -9 -8 -7 -7 -7 -7 -6 -7 -7 -8 -8 -8 -8 -9 -8 -8
-17 -15 -15 -18 -22 -22 -23 -22 -20 -19 -18 -17 -16 -15 -14 -14 -13 -12 -12 -12 -11 -10 -9 -8 -7 -8 -8 -7 -7 -7 -7 -7 -7 -7 -7 -8 -8 -8 -8 -8 -8 -8 -7
Wind_Speed
14 13 12 14 16 14 10 9 8 6 5 4 3 3 4 5 7 8 9 10 12 13 14 14 14 14 14 14 15 15 14 13 14 10 4 1 4 5 3 7 9 8 12
18 16 15 15 14 12 11 10 8 7 5 4 4 4 5 5 5 7 9 10 12 13 14 14 15 14 14 14 14 15 14 15 15 13 8 3 5 9 9 14 13 13 15
21 19 18 15 14 12 11 10 8 7 6 5 4 5 5 5 5 6 8 9 10 12 13 14 15 15 15 15 15 15 15 14 13 11 7 5 4 12 9 9 10 12 14
20 17 16 16 14 13 12 10 9 7 6 5 4 5 5 5 5 5 7 9 10 12 13 13 14 14 15 14 15 15 14 13 13 10 8 8 9 6 10 5 13 11 12
17 15 15 14 14 13 11 10 9 8 7 6 5 6 6 5 5 5 6 8 9 10 12 12 13 13 13 14 14 14 14 14 13 13 13 10 10 6 8 22 23 17 12
15 12 11 12 12 12 12 11 10 9 8 7 7 7 6 6 5 5 6 7 8 9 11 12 13 13 13 13 13 14 13 13 12 11 12 12 12 14 12 17 22 22 18
13 11 11 12 11 10 11 12 11 10 9 9 8 8 8 7 6 6 7 7 8 9 10 11 12 13 14 14 14 14 14 13 13 12 11 11 11 13 15 17 19 21 22
12 10 8 9 10 11 12 13 13 13 12 10 10 10 10 9 8 8 8 8 9 11 12 13 14 15 15 14 14 13 13 13 13 13 12 12 12 12 13 15 17 21 19
10 8 9 10 12 13 14 14 14 13 13 12 12 12 12 11 10 9 9 9 10 11 13 14 15 16 17 17 16 15 14 14 13 13 14 13 13 13 13 13 13 14 11
9 10 11 12 13 13 13 15 16 16 15 15 14 14 14 13 12 11 10 10 10 11 12 14 15 16 17 17 17 16 16 16 16 16 16 16 16 15 15 14 14 13 14
6 10 13 14 13 13 13 14 15 15 15 15 15 16 15 15 14 13 12 12 11 12 13 15 16 17 18 18 18 18 19 19 18 18 19 18 18 16 17 16 15 14 15
5 5 6 9 14 15 14 14 14 14 13 13 14 16 16 15 15 14 14 14 14 15 16 16 18 20 20 21 21 21 21 21 21 21 21 20 19 18 16 16 15 15 15
6 4 4 5 5 12 17 18 16 14 13 13 13 13 15 16 16 16 16 17 18 19 19 19 20 22 22 22 22 23 24 24 23 22 22 21 20 18 17 16 16 15 16
9 9 9 11 10 7 7 14 16 16 16 15 14 14 14 15 16 18 19 19 21 21 22 22 22 24 25 24 24 25 24 24 23 23 22 21 21 20 20 19 18 18 18
8 8 9 9 10 10 10 5 4 9 13 14 14 14 15 16 17 18 20 21 22 22 22 25 28 27 26 26 26 25 24 24 24 23 23 23 22 22 23 23 22 22 21
8 7 7 8 10 11 11 10 8 6 6 7 10 13 16 18 20 21 22 22 23 23 26 29 25 26 27 26 25 24 25 25 26 26 26 26 26 25 25 25 25 25 25
5 3 5 7 9 10 11 11 11 12 14 16 17 20 22 23 23 23 23 23 23 26 25 26 28 27 26 25 25 25 27 28 28 29 29 29 28 28 27 27 26 26 25
1 3 6 7 8 9 9 10 12 14 16 17 19 21 23 24 23 23 23 23 24 25 26 24 23 24 25 25 26 26 28 29 30 30 30 30 30 29 28 28 28 27 26
3 5 7 9 9 10 11 13 14 16 18 21 23 25 26 28 28 28 28 27 28 28 27 28 30 31 32 30 31 31 32 33 34 33 33 31 31 30 27 25 27 27 29
5 6 8 8 9 12 14 16 18 21 23 26 27 28 29 29 31 31 32 33 33 33 32 34 34 36 38 35 34 32 31 31 32 32 32 30 27 26 24 24 25 27 32
8 8 10 12 14 17 20 22 24 27 28 30 31 33 33 32 33 34 34 35 36 36 37 38 39 39 39 38 32 30 31 29 28 29 31 31 28 25 25 25 26 29 30
9 10 14 17 20 22 25 29 31 30 30 34 37 37 36 35 35 35 35 33 32 32 34 35 36 36 36 35 32 31 32 30 26 28 29 30 29 31 32 32 32 30 26
12 15 19 23 26 27 29 33 35 32 31 35 41 41 39 38 37 33 31 31 33 34 35 35 37 38 36 35 33 31 34 32 30 30 30 29 29 30 31 31 30 29 29
17 21 25 29 33 32 32 32 33 34 32 39 43 40 38 36 34 33 33 34 36 36 36 36 36 37 38 38 36 35 35 33 30 28 27 27 27 28 28 28 28 26 27
25 28 31 33 35 35 36 35 30 29 38 40 37 36 35 36 37 38 38 36 38 36 33 34 35 37 41 41 36 33 33 33 33 31 33 33 33 33 31 28 27 26 27
31 32 33 35 36 36 37 37 35 34 34 36 36 37 38 38 37 38 41 38 37 35 31 30 29 33 34 35 34 33 32 31 30 30 32 34 35 34 31 27 26 25 25
Wind_Direction
205 206 207 201 201 209 229 228 235 242 255 233 245 280 301 313 325 328 333 337 340 341 341 342 342 340 338 337 336 338 340 335 339 353 328 245 204 181 221 262 266 281 302
196 195 197 198 207 225 227 226 234 245 234 230 245 262 287 304 321 328 335 340 342 342 345 346 346 347 347 343 340 340 348 348 349 357 349 330 241 223 268 269 267 276 289
192 194 196 204 214 222 225 227 234 239 223 232 247 277 296 308 316 325 333 339 345 348 350 350 350 350 351 349 348 346 348 350 352 355 9 341 334 318 268 254 278 286 305
193 195 200 209 219 224 223 229 233 224 227 235 263 286 291 299 307 320 339 349 351 350 351 352 351 353 354 353 351 351 350 350 345 348 336 325 309 323 314 289 300 319 326
195 202 212 222 221 218 227 233 232 224 230 243 268 278 283 289 304 326 339 342 345 349 352 354 355 356 359 358 356 354 353 351 348 341 339 338 322 300 297 310 321 332 354
198 209 213 213 217 226 233 234 232 230 234 250 266 275 282 288 295 312 327 335 343 349 350 352 352 352 354 354 354 354 354 352 348 342 334 329 326 315 310 306 321 327 339
203 208 214 218 226 237 244 239 237 238 242 256 268 274 275 279 286 302 314 326 339 344 346 349 348 346 346 346 346 345 345 346 344 342 339 331 322 314 313 312 318 321 330
204 218 228 235 245 251 251 246 243 241 245 258 269 270 269 272 278 292 305 319 330 336 341 344 343 340 339 337 337 337 336 336 334 334 334 333 326 319 313 311 315 323 326
210 229 242 254 259 261 259 256 253 251 253 264 271 274 275 276 279 287 298 308 320 329 335 337 336 334 332 331 330 329 327 326 325 324 324 324 321 317 313 308 306 306 310
220 242 255 264 265 267 260 254 250 249 251 260 269 273 272 272 274 282 290 298 308 318 324 327 327 326 324 322 321 319 317 317 316 316 315 314 312 312 311 308 303 297 291
248 262 264 261 259 258 256 259 259 260 263 271 278 280 277 274 275 280 283 287 295 301 308 313 317 317 314 312 311 310 310 309 308 307 307 308 306 304 302 303 301 296 290
67 16 327 274 248 253 258 259 263 264 268 276 282 282 277 274 274 277 281 287 292 294 296 302 308 310 309 306 305 304 302 301 301 302 301 302 299 300 299 295 295 295 294
79 44 3 356 306 264 255 252 257 262 266 276 286 291 289 284 281 281 281 284 287 290 292 297 301 302 301 299 300 301 299 298 297 297 295 295 294 293 292 291 290 290 291
76 69 58 48 36 360 298 258 252 253 258 268 277 287 291 289 287 288 290 291 294 294 292 293 296 298 296 295 296 296 294 292 292 291 291 291 291 291 290 289 287 287 286
91 70 58 47 39 36 33 17 285 264 267 271 274 283 290 293 293 293 293 294 292 292 292 290 292 292 291 293 294 291 290 290 287 285 286 288 288 288 288 289 288 286 285
88 68 47 28 19 17 14 10 9 352 333 302 292 291 290 291 293 295 295 295 292 290 288 292 291 293 292 292 290 289 289 288 287 286 283 282 282 283 282 281 280 280 282
131 83 27 8 358 351 346 337 328 320 312 309 308 306 304 303 303 300 296 292 290 294 293 290 293 293 292 291 288 287 286 286 285 284 283 280 279 278 278 276 275 273 272
134 334 347 348 342 339 333 333 332 331 325 321 316 312 309 306 305 305 304 300 299 297 295 292 291 291 292 292 289 287 285 285 285 285 284 282 280 276 278 277 275 275 273
297 307 316 319 327 332 332 330 328 329 327 323 319 317 314 310 306 301 298 297 295 293 293 292 292 291 291 289 289 290 288 287 285 284 284 284 281 278 276 278 279 280 277
280 302 312 315 324 323 322 322 325 327 327 323 319 315 311 307 302 299 295 293 291 289 288 288 290 293 294 294 289 293 293 290 289 286 283 281 282 280 276 274 278 280 279
294 301 299 304 311 314 312 312 315 317 319 318 315 312 309 306 303 303 302 298 295 293 291 290 289 289 290 294 291 292 294 294 292 287 284 283 283 284 282 280 281 283 290
290 300 300 306 309 308 305 305 303 310 312 317 316 311 307 305 304 304 302 299 298 298 297 296 294 293 293 292 289 289 291 295 290 287 287 286 284 281 281 282 282 281 280
318 317 315 308 303 303 303 301 299 303 302 306 310 308 305 304 303 303 301 300 302 303 301 300 301 300 298 294 288 289 290 293 290 287 286 286 283 283 282 282 282 281 279
319 319 314 307 304 304 302 298 298 295 295 302 306 303 304 304 304 304 302 302 303 305 304 302 302 302 300 295 292 292 294 293 292 289 289 287 283 280 280 281 283 284 282
309 308 306 305 303 303 301 301 301 295 297 301 301 301 302 300 300 299 299 301 301 303 299 297 295 293 293 293 295 294 293 294 292 294 291 286 283 282 282 280 281 282 283
304 304 305 307 306 305 303 303 303 303 302 301 299 299 300 300 299 299 299 299 301 301 297 292 289 291 289 291 290 288 286 283 282 280 276 276 278 279 281 280 281 275 275
Height
1527 1529 1531 1533 1535 1537 1538 1538 1538 1539 1539 1539 1539 1539 1538 1538 1537 1535 1534 1532 1529 1527 1525 1523 1520 1518 1516 1513 1510 1507 1506 1503 1500 1499 1497 1496 1496 1496 1496 1495 1495 1493 1492
1525 1528 1530 1532 1534 1536 1536 1537 1537 1538 1538 1538 1538 1538 1537 1537 1536 1534 1532 1530 1528 1526 1524 1522 1519 1517 1515 1513 1510 1507 1505 1503 1500 1498 1497 1496 1496 1496 1495 1493 1493 1491 1489
1523 1526 1528 1531 1533 1534 1535 1536 1536 1536 1537 1538 1538 1538 1537 1536 1535 1533 1531 1529 1528 1526 1524 1522 1519 1517 1514 1512 1510 1507 1505 1503 1502 1500 1500 1498 1496 1494 1492 1491 1490 1489 1487
1523 1525 1528 1530 1531 1532 1533 1534 1534 1535 1537 1537 1537 1537 1536 1535 1534 1532 1530 1528 1527 1525 1524 1522 1520 1517 1514 1512 1510 1508 1505 1504 1502 1502 1501 1500 1499 1497 1491 1489 1489 1487 1484
1522 1524 1526 1528 1530 1532 1533 1534 1534 1534 1535 1536 1536 1536 1535 1534 1532 1531 1529 1528 1526 1525 1523 1521 1519 1517 1514 1512 1510 1507 1505 1504 1502 1501 1500 1500 1499 1497 1496 1489 1485 1483 1482
1521 1524 1526 1528 1530 1531 1532 1532 1533 1533 1534 1534 1535 1534 1534 1533 1531 1530 1529 1528 1526 1524 1523 1521 1519 1517 1515 1512 1510 1507 1504 1502 1501 1500 1500 1499 1499 1497 1495 1491 1486 1482 1478
1522 1524 1526 1527 1528 1530 1531 1532 1532 1533 1533 1533 1533 1533 1532 1531 1530 1529 1528 1527 1525 1523 1522 1520 1519 1517 1515 1512 1510 1507 1504 1502 1500 1499 1498 1497 1496 1494 1493 1490 1487 1482 1477
1521 1524 1525 1527 1527 1528 1529 1530 1530 1530 1531 1531 1531 1531 1530 1529 1528 1527 1526 1525 1523 1522 1520 1519 1517 1515 1513 1511 1509 1507 1505 1502 1500 1499 1496 1495 1493 1491 1490 1488 1485 1481 1478
1521 1523 1524 1525 1526 1526 1527 1528 1529 1529 1530 1530 1530 1529 1529 1528 1526 1525 1524 1523 1521 1520 1519 1518 1516 1515 1513 1510 1508 1506 1503 1501 1499 1497 1495 1494 1492 1489 1487 1485 1484 1481 1478
1520 1521 1521 1522 1523 1523 1524 1523 1524 1524 1525 1525 1526 1525 1525 1524 1524 1523 1522 1521 1519 1517 1516 1516 1514 1512 1510 1508 1506 1504 1502 1500 1497 1495 1493 1491 1489 1487 1485 1483 1480 1478 1477
1519 1520 1519 1520 1520 1521 1522 1522 1523 1523 1523 1524 1524 1523 1522 1522 1522 1521 1519 1517 1515 1513 1513 1512 1510 1508 1507 1505 1502 1500 1499 1497 1494 1492 1489 1488 1485 1484 1481 1479 1478 1476 1473
1517 1517 1516 1515 1515 1517 1518 1519 1520 1520 1520 1520 1519 1519 1518 1517 1516 1517 1516 1514 1513 1511 1510 1508 1507 1505 1503 1501 1498 1496 1493 1490 1488 1487 1485 1483 1481 1479 1477 1475 1474 1472 1470
1516 1516 1516 1514 1513 1513 1513 1514 1515 1516 1517 1517 1517 1516 1515 1514 1513 1512 1510 1508 1508 1507 1505 1504 1502 1500 1498 1496 1495 1492 1489 1486 1484 1481 1478 1477 1475 1474 1472 1471 1469 1468 1466
1517 1517 1516 1514 1513 1512 1510 1510 1511 1512 1513 1513 1514 1513 1512 1511 1509 1508 1507 1505 1504 1502 1501 1499 1497 1495 1493 1491 1488 1485 1483 1481 1479 1476 1474 1472 1470 1468 1467 1465 1464 1462 1461
1516 1515 1514 1514 1513 1512 1510 1509 1509 1509 1510 1510 1509 1509 1509 1507 1506 1504 1503 1501 1498 1497 1494 1493 1491 1489 1486 1484 1482 1480 1477 1475 1473 1471 1469 1467 1465 1463 1461 1460 1459 1456 1454
1515 1516 1516 1515 1514 1513 1512 1511 1509 1508 1507 1506 1506 1504 1504 1502 1500 1499 1497 1495 1493 1492 1489 1486 1484 1482 1479 1478 1475 1472 1470 1468 1466 1464 1463 1461 1458 1457 1455 1454 1452 1450 1448
1513 1514 1513 1512 1512 1511 1511 1510 1509 1507 1506 1504 1503 1502 1499 1498 1496 1493 1491 1489 1487 1484 1482 1480 1477 1474 1472 1470 1468 1466 1462 1460 1458 1457 1455 1453 1452 1450 1447 1446 1444 1443 1442
1515 1514 1513 1512 1511 1510 1509 1507 1506 1505 1504 1502 1500 1499 1496 1493 1491 1488 1486 1483 1481 1477 1475 1472 1469 1466 1465 1463 1460 1457 1454 1451 1449 1448 1446 1445 1443 1442 1440 1437 1435 1435 1435
1513 1514 1513 1512 1511 1509 1507 1506 1504 1502 1501 1498 1496 1493 1491 1488 1485 1481 1478 1475 1473 1470 1468 1465 1461 1459 1456 1455 1453 1449 1445 1442 1440 1438 1437 1435 1434 1433 1432 1429 1428 1426 1425
1512 1511 1511 1511 1509 1507 1504 1503 1500 1498 1496 1493 1490 1488 1484 1481 1477 1474 1470 1467 1464 1461 1459 1455 1453 1450 1447 1445 1443 1441 1437 1433 1431 1429 1427 1426 1425 1424 1424 1422 1420 1418 1417
1510 1508 1507 1507 1506 1504 1501 1499 1496 1493 1490 1487 1483 1480 1476 1473 1470 1465 1462 1458 1454 1451 1448 1445 1443 1440 1438 1435 1434 1431 1429 1425 1421 1419 1418 1417 1416 1415 1415 1414 1412 1410 1410
1507 1506 1505 1504 1502 1500 1497 1493 1490 1488 1484 1480 1476 1472 1468 1465 1461 1457 1453 1450 1446 1441 1438 1435 1432 1428 1426 1425 1423 1421 1420 1417 1413 1410 1409 1407 1406 1406 1405 1404 1403 1402 1401
1505 1503 1501 1498 1496 1494 1492 1487 1483 1480 1475 1471 1468 1464 1459 1456 1452 1448 1445 1441 1437 1434 1430 1427 1423 1418 1416 1413 1412 1411 1410 1407 1404 1402 1400 1398 1397 1396 1395 1394 1393 1393 1392
1500 1498 1495 1492 1488 1486 1483 1479 1475 1472 1467 1463 1458 1454 1450 1446 1443 1440 1436 1433 1428 1425 1421 1417 1413 1409 1405 1402 1401 1400 1398 1396 1394 1392 1390 1389 1388 1387 1385 1384 1383 1383 1383
1496 1493 1490 1485 1481 1477 1473 1469 1466 1464 1459 1454 1449 1445 1441 1437 1433 1431 1427 1424 1420 1417 1413 1409 1407 1403 1396 1392 1393 1391 1388 1386 1384 1382 1379 1377 1377 1376 1376 1376 1375 1374 1373
1490 1486 1482 1477 1472 1468 1463 1460 1457 1454 1450 1444 1440 1436 1432 1427 1424 1421 1415 1414 1411 1407 1405 1402 1400 1393 1389 1385 1383 1381 1379 1377 1375 1374 1371 1369 1367 1366 1366 1366 1366 1366 1365